NKS1242 KRDU-KACY

Flight info

Callsign NKS1242
Flight time N/A
Altitude 37000
Route BEXGO5 BOUSY KALDA JETER KW54A 392154N0742103W
Aircraft A21N/M-SDE2E3FGHIRWXY/LB1

Departure

Time 2026-05-05 20:53
Airport Raleigh-Durham International Airport (KRDU)

Arrival

Time N/A
Airport Atlantic City International Airport (KACY)
Time Latitude Longitude Altitude Speed Heading
2026-05-05 20:39 35.87873 -78.79270 416 ft 0 kts 134°
2026-05-05 20:44 35.87881 -78.79280 420 ft 2 kts 134°
2026-05-05 20:45 35.87895 -78.79316 419 ft 2 kts 84°
2026-05-05 20:45 35.87888 -78.79336 421 ft 3 kts 46°
2026-05-05 20:45 35.87887 -78.79338 419 ft 0 kts 43°
2026-05-05 20:48 35.87891 -78.79333 421 ft 0 kts 41°
2026-05-05 20:48 35.87975 -78.79244 427 ft 26 kts 41°
2026-05-05 20:49 35.88111 -78.79084 420 ft 28 kts 46°
2026-05-05 20:49 35.88254 -78.78898 426 ft 31 kts 47°
2026-05-05 20:49 35.88411 -78.78703 424 ft 32 kts 44°
2026-05-05 20:49 35.88572 -78.78508 423 ft 33 kts 45°
2026-05-05 20:50 35.88735 -78.78309 429 ft 34 kts 45°
2026-05-05 20:50 35.88904 -78.78095 420 ft 36 kts 47°
2026-05-05 20:50 35.89049 -78.77838 416 ft 36 kts 46°
2026-05-05 20:50 35.89186 -78.77671 423 ft 12 kts 37°
2026-05-05 20:51 35.89225 -78.77647 423 ft 0 kts 18°
2026-05-05 20:51 35.89213 -78.77651 420 ft 2 kts 14°
2026-05-05 20:52 35.89280 -78.77656 419 ft 19 kts 339°
2026-05-05 20:52 35.89348 -78.77802 432 ft 15 kts 268°
2026-05-05 20:52 35.89315 -78.77903 419 ft 15 kts 231°
2026-05-05 20:52 35.89080 -78.78177 423 ft 84 kts 224°
2026-05-05 20:53 35.88479 -78.78909 460 ft 157 kts 223°
2026-05-05 20:53 35.87635 -78.79996 768 ft 192 kts 226°
2026-05-05 20:53 35.86629 -78.81295 980 ft 230 kts 226°
2026-05-05 20:53 35.85461 -78.82809 1427 ft 254 kts 227°